This is the latest recevied weather packets stored in our database for station/object LU1MQF-13. If no packets are shown the sender has not sent any weather packets the latest 10 day(s).
| Time | Temp. | Humidity | Pressure | Rain* | Wind** | Luminosity | Snow |
|---|---|---|---|---|---|---|---|
| 1777783323 | 12.78° C | 34% | 942.9 hPa | - | - | - | - |
| 1777782423 | 12.78° C | 35% | 943.1 hPa | - | - | - | - |
| 1777781523 | 12.78° C | 34% | 943.1 hPa | - | - | - | - |
| 1777780622 | 12.78° C | 34% | 943.2 hPa | - | - | - | - |
| 1777779722 | 12.78° C | 34% | 943.3 hPa | - | - | - | - |
| 1777778823 | 12.78° C | 34% | 943.7 hPa | - | - | - | - |
| 1777777923 | 12.78° C | 34% | 944 hPa | - | - | - | - |
| 1777777022 | 12.78° C | 35% | 944.5 hPa | - | - | - | - |
| 1777776122 | 12.78° C | 36% | 944.7 hPa | - | - | - | - |
| 1777775222 | 13.89° C | 40% | 945 hPa | - | - | - | - |
| 1777774321 | 13.89° C | 34% | 945 hPa | - | - | - | - |
| 1777773422 | 13.89° C | 35% | 945.4 hPa | - | - | - | - |
| 1777772523 | 13.89° C | 35% | 945.5 hPa | - | - | - | - |
| 1777771622 | 13.89° C | 36% | 945.3 hPa | - | - | - | - |
| 1777770722 | 13.89° C | 34% | 945.7 hPa | - | - | - | - |
| 1777769822 | 13.89° C | 34% | 945.7 hPa | - | - | - | - |
| 1777768922 | 13.89° C | 35% | 945.8 hPa | - | - | - | - |
| 1777768022 | 13.89° C | 33% | 945.9 hPa | - | - | - | - |
| 1777767122 | 13.89° C | 33% | 946 hPa | - | - | - | - |
| 1777766222 | 13.89° C | 32% | 946 hPa | - | - | - | - |
| 1777764422 | 13.89° C | 32% | 946.4 hPa | - | - | - | - |
| 1777763522 | 15° C | 33% | 946.6 hPa | - | - | - | - |
| 1777762622 | 15° C | 32% | 946.5 hPa | - | - | - | - |
| 1777761722 | 15° C | 32% | 946.5 hPa | - | - | - | - |
| 1777760822 | 15° C | 32% | 946.7 hPa | - | - | - | - |
* Rain since midnight (hover to see other rain measurements)
** Current wind speed in m/s (hover to see current wind gust speed)